Mineola, TX

10:55 AM CDT on July 20, 2017 (GMT -0500)
Mineola

Weather History for KJDD - February, 2013

Change the Weather History Date:

Saturday, February 23, 2013

  Actual Average (KTYR) Record (KTYR)
Temperature  
Mean Temperature 44 °F -  
Max Temperature 55 °F 59 °F 87 °F (1982)
Min Temperature 32 °F 41 °F 19 °F (1901)
Degree Days  
Heating Degree Days 22    
Moisture  
Dew Point 31 °F    
Average Humidity 65    
Maximum Humidity 93    
Minimum Humidity 38    
Precipitation  
Precipitation 0.00 in - - ()
Sea Level Pressure  
Sea Level Pressure 30.02 in    
Wind  
Wind Speed 2 mph (NNW)    
Max Wind Speed 10 mph    
Max Gust Speed 18 mph    
Visibility 10 miles    
Events      
Averages and records for this station are not official NWS values.
T = Trace of Precipitation, MM = Missing Value Source: NWS Daily Summary

Daily Weather History Graph

Daily Weather History Graph

Search for Another Location

Airport or City:

Trip Planner

Search our weather history database for the weather conditions in past years. The results will help you decide how hot, cold, wet, or windy it might be!

Date:

Astronomy

Feb. 23, 2013 Rise Set
Actual Time 6:56 AM CST 6:14 PM CST
Civil Twilight 6:31 AM CST 6:39 PM CST
Nautical Twilight 6:02 AM CST 7:08 PM CST
Astronomical Twilight 5:34 AM CST 7:36 PM CST
Moon 4:29 PM CST (2/23) 5:15 AM CST (2/23)
Length of Visible Light 12h 08m
Length of Day
11h 18m
Waxing Gibbous, 95% of the Moon is Illuminated
Feb 23
Waxing Gibbous
Feb 25
Full
Mar 4
Last Quarter
Mar 11
New
Mar 19
First Quarter

Hourly Weather History & Observations

Time (CST) Temp. Windchill Dew Point Humidity Pressure Visibility Wind Dir Wind Speed Gust Speed Precip Events Conditions
12:15 AM 39.2 °F - 30.2 °F 70% 30.09 in 10.0 mi Calm Calm - N/A   Clear
12:35 AM 39.2 °F 35.9 °F 30.2 °F 70% 30.09 in 10.0 mi North 4.6 mph - N/A   Clear
12:55 AM 39.2 °F 35.0 °F 30.2 °F 70% 30.08 in 10.0 mi North 5.8 mph - N/A   Clear
1:15 AM 37.4 °F 32.8 °F 30.2 °F 75% 30.08 in 10.0 mi North 5.8 mph - N/A   Clear
1:35 AM 37.4 °F 32.8 °F 28.4 °F 70% 30.08 in 10.0 mi North 5.8 mph - N/A   Clear
1:55 AM 37.4 °F 33.8 °F 28.4 °F 70% 30.08 in 10.0 mi North 4.6 mph - N/A   Clear
2:15 AM 37.4 °F - 28.4 °F 70% 30.06 in 10.0 mi Calm Calm - N/A   Clear
2:35 AM 37.4 °F - 28.4 °F 70% 30.05 in 10.0 mi Calm Calm - N/A   Clear
2:55 AM 37.4 °F 34.9 °F 28.4 °F 70% 30.04 in 10.0 mi NNE 3.5 mph - N/A   Clear
3:15 AM 35.6 °F - 28.4 °F 75% 30.04 in 10.0 mi Calm Calm - N/A   Clear
3:35 AM 35.6 °F 32.8 °F 28.4 °F 75% 30.04 in 10.0 mi NNE 3.5 mph - N/A   Clear
3:55 AM 35.6 °F - 28.4 °F 75% 30.03 in 10.0 mi Calm Calm - N/A   Clear
4:15 AM 35.6 °F - 28.4 °F 75% 30.02 in 10.0 mi Calm Calm - N/A   Clear
4:35 AM 35.6 °F - 26.6 °F 70% 30.03 in 10.0 mi Calm Calm - N/A   Clear
4:55 AM 35.6 °F - 26.6 °F 70% 30.03 in 10.0 mi Calm Calm - N/A   Clear
5:15 AM 33.8 °F - 28.4 °F 81% 30.03 in 10.0 mi Calm Calm - N/A   Clear
5:35 AM 32.0 °F - 28.4 °F 87% 30.03 in 10.0 mi Calm Calm - N/A   Clear
5:55 AM 32.0 °F - 28.4 °F 87% 30.04 in 10.0 mi Calm Calm - N/A   Clear
6:15 AM 32.0 °F - 28.4 °F 87% 30.03 in 10.0 mi Calm Calm - N/A   Clear
6:35 AM 32.0 °F - 28.4 °F 87% 30.04 in 10.0 mi Calm Calm - N/A   Clear
6:55 AM 32.0 °F - 28.4 °F 87% 30.05 in 10.0 mi Calm Calm - N/A   Clear
7:15 AM 32.0 °F - 28.4 °F 87% 30.06 in 9.0 mi Calm Calm - N/A   Clear
7:35 AM 32.0 °F - 28.4 °F 87% 30.08 in 9.0 mi Calm Calm - N/A   Clear
7:55 AM 33.8 °F - 28.4 °F 81% 30.07 in 9.0 mi Calm Calm - N/A   Clear
8:15 AM 35.6 °F - 28.4 °F 75% 30.08 in 9.0 mi Calm Calm - N/A   Clear
8:35 AM 37.4 °F - 28.4 °F 70% 30.07 in 10.0 mi Calm Calm - N/A   Clear
8:55 AM 39.2 °F - 30.2 °F 70% 30.07 in 10.0 mi Calm Calm - N/A   Clear
9:15 AM 39.2 °F 37.0 °F 30.2 °F 70% 30.07 in 10.0 mi ESE 3.5 mph - N/A   Clear
9:35 AM 42.8 °F 41.1 °F 30.2 °F 61% 30.07 in 9.0 mi NE 3.5 mph - N/A   Clear
9:55 AM 44.6 °F - 30.2 °F 57% 30.06 in 9.0 mi Calm Calm - N/A   Clear
10:15 AM 44.6 °F - 32.0 °F 61% 30.06 in 10.0 mi Calm Calm - N/A   Clear
10:35 AM 46.4 °F - 32.0 °F 57% 30.06 in 9.0 mi Calm Calm - N/A   Clear
10:55 AM 48.2 °F - 32.0 °F 54% 30.06 in 10.0 mi Calm Calm - N/A   Clear
11:15 AM 48.2 °F - 32.0 °F 54% 30.06 in 9.0 mi Calm Calm - N/A   Clear
11:35 AM 50.0 °F - 32.0 °F 50% 30.05 in 10.0 mi NNE 3.5 mph - N/A   Clear
11:55 AM 51.8 °F - 32.0 °F 47% 30.05 in 10.0 mi West 6.9 mph - N/A   Clear
12:15 PM 51.8 °F - 32.0 °F 47% 30.06 in 9.0 mi West 6.9 mph - N/A   Clear
12:35 PM 51.8 °F - 32.0 °F 47% 30.05 in 9.0 mi NNW 4.6 mph - N/A   Clear
12:55 PM 51.8 °F - 32.0 °F 47% 30.04 in 9.0 mi NNW 9.2 mph - N/A   Clear
1:15 PM 53.6 °F - 32.0 °F 44% 30.03 in 10.0 mi NNW 8.1 mph - N/A   Clear
1:35 PM 53.6 °F - 32.0 °F 44% 30.03 in 10.0 mi North 9.2 mph 18.4 mph N/A   Clear
1:55 PM 53.6 °F - 32.0 °F 44% 30.01 in 10.0 mi North 5.8 mph - N/A   Clear
2:15 PM 53.6 °F - 32.0 °F 44% 30.00 in 10.0 mi NW 10.4 mph - N/A   Clear
2:35 PM 53.6 °F - 32.0 °F 44% 29.99 in 10.0 mi NNW 8.1 mph - N/A   Clear
2:55 PM 55.4 °F - 32.0 °F 41% 29.99 in 10.0 mi NW 4.6 mph - N/A   Clear
3:15 PM - - - N/A% 29.97 in - Calm Calm - N/A   Unknown
3:35 PM 55.4 °F - 30.2 °F 38% 29.97 in 10.0 mi Calm Calm - N/A   Unknown
3:55 PM 55.4 °F - 30.2 °F 38% 29.97 in 10.0 mi Calm Calm - N/A   Clear
4:15 PM 55.4 °F - 30.2 °F 38% 29.96 in 10.0 mi Calm Calm - N/A   Clear
4:35 PM 55.4 °F - 30.2 °F 38% 29.96 in 10.0 mi Calm Calm - N/A   Clear
4:55 PM 55.4 °F - 30.2 °F 38% 29.95 in 9.0 mi Calm Calm - N/A   Clear
5:15 PM 55.4 °F - 30.2 °F 38% 29.96 in 10.0 mi West 3.5 mph - N/A   Clear
5:35 PM 55.4 °F - 30.2 °F 38% 29.96 in 10.0 mi WNW 3.5 mph - N/A   Clear
5:55 PM 53.6 °F - 32.0 °F 44% 29.96 in 10.0 mi Calm Calm - N/A   Clear
6:15 PM 51.8 °F - 32.0 °F 47% 29.96 in 10.0 mi Calm Calm - N/A   Clear
6:35 PM 46.4 °F - 33.8 °F 62% 29.97 in 10.0 mi Calm Calm - N/A   Clear
6:55 PM 46.4 °F - 33.8 °F 62% 29.97 in 10.0 mi Calm Calm - N/A   Clear
7:15 PM 44.6 °F - 33.8 °F 66% 29.97 in 10.0 mi Calm Calm - N/A   Clear
7:35 PM 42.8 °F - 33.8 °F 70% 29.97 in 10.0 mi Calm Calm - N/A   Clear
7:55 PM 42.8 °F - 33.8 °F 70% 29.98 in 10.0 mi Calm Calm - N/A   Clear
8:15 PM 39.2 °F - 32.0 °F 75% 29.98 in 10.0 mi Calm Calm - N/A   Clear
8:35 PM 41.0 °F 38.0 °F 32.0 °F 70% 29.99 in 10.0 mi West 4.6 mph - N/A   Clear
8:55 PM 39.2 °F - 32.0 °F 75% 30.00 in 10.0 mi Calm Calm - N/A   Clear
9:15 PM 39.2 °F - 33.8 °F 81% 29.99 in 10.0 mi Calm Calm - N/A   Clear
9:35 PM 39.2 °F - 32.0 °F 75% 30.00 in 10.0 mi Calm Calm - N/A   Clear
10:15 PM 37.4 °F - 32.0 °F 81% 30.00 in 10.0 mi Calm Calm - N/A   Clear
10:35 PM 37.4 °F - 32.0 °F 81% 29.99 in 10.0 mi Calm Calm - N/A   Clear
10:55 PM 35.6 °F - 32.0 °F 87% 29.98 in 10.0 mi Calm Calm - N/A   Clear
11:15 PM 35.6 °F - 32.0 °F 87% 29.97 in 10.0 mi Calm Calm - N/A   Clear
11:35 PM 35.6 °F - 32.0 °F 87% 29.96 in 10.0 mi Calm Calm - N/A   Clear
11:55 PM 35.6 °F - 33.8 °F 93% 29.96 in 10.0 mi Calm Calm - N/A   Clear